This is the latest recevied weather packets stored in our database for station/object KB1WCR. If no packets are shown the sender has not sent any weather packets the latest 10 day(s).
| Time | Temp. | Humidity | Pressure | Rain* | Wind** | Luminosity | Snow |
|---|---|---|---|---|---|---|---|
| 1777818131 | 6.67° C | 89% | 1005.6 hPa | 0 mm | - | 247 W/m² | - |
| 1777817828 | 6.67° C | 91% | 1005.8 hPa | 0 mm | - | 221 W/m² | - |
| 1777817525 | 6.67° C | 91% | 1005.7 hPa | 0 mm | - | 238 W/m² | - |
| 1777817222 | 6.67° C | 91% | 1005.8 hPa | 0 mm | - | 185 W/m² | - |
| 1777816919 | 6.11° C | 92% | 1005.7 hPa | 0 mm | - | 214 W/m² | - |
| 1777816616 | 6.11° C | 92% | 1005.7 hPa | 0 mm | - | 153 W/m² | - |
| 1777816313 | 6.11° C | 93% | 1006 hPa | 0 mm | - | 126 W/m² | - |
| 1777816010 | 6.11° C | 93% | 1005.7 hPa | 0 mm | - | 101 W/m² | - |
| 1777815707 | 6.11° C | 93% | 1005.9 hPa | 0 mm | - | 131 W/m² | - |
| 1777815404 | 6.11° C | 94% | 1006 hPa | 0 mm | - | 125 W/m² | - |
| 1777815101 | 6.11° C | 94% | 1006.3 hPa | 0 mm | - | 119 W/m² | - |
| 1777814798 | 6.11° C | 94% | 1006.1 hPa | 0 mm | - | 108 W/m² | - |
| 1777814495 | 6.11° C | 95% | 1006 hPa | 0 mm | - | 151 W/m² | - |
| 1777814192 | 6.11° C | 95% | 1006.2 hPa | 0 mm | - | 167 W/m² | - |
| 1777813889 | 5.56° C | 95% | 1006.1 hPa | 0 mm | - | 125 W/m² | - |
| 1777813586 | 5.56° C | 96% | 1006.4 hPa | 0 mm | - | 96 W/m² | - |
| 1777813284 | 6.11° C | 96% | 1006.2 hPa | 0 mm | - | 91 W/m² | - |
| 1777812981 | 5.56° C | 96% | 1006.2 hPa | 0 mm | - | 88 W/m² | - |
| 1777812679 | 5.56° C | 96% | 1006.3 hPa | 0 mm | - | 71 W/m² | - |
| 1777812375 | 5.56° C | 97% | 1006.2 hPa | 0 mm | - | 81 W/m² | - |
| 1777812074 | 6.11° C | 97% | 1006.2 hPa | 0 mm | - | 87 W/m² | - |
| 1777811771 | 6.11° C | 97% | 1006.3 hPa | 0 mm | - | 96 W/m² | - |
| 1777811468 | 6.11° C | 97% | 1006.3 hPa | 0 mm | - | 90 W/m² | - |
| 1777811164 | 6.11° C | 97% | 1006.2 hPa | 0 mm | - | 109 W/m² | - |
| 1777810862 | 5.56° C | 98% | 1006.4 hPa | 0 mm | - | 112 W/m² | - |
* Rain latest hour (hover to see other rain measurements)
** Current wind speed in m/s (hover to see current wind gust speed)